"Period start","avg(HW err(1)/warn(2) (#))","avg(Visibility (m))","avg(Weather code (#))","avg(Precip intensity (mm/h))","min(HW err(1)/warn(2) (#))","max(HW err(1)/warn(2) (#))","std(HW err(1)/warn(2) (#))","med(HW err(1)/warn(2) (#))","min(Visibility (m))","max(Visibility (m))","std(Visibility (m))","med(Visibility (m))","min(Weather code (#))","max(Weather code (#))","std(Weather code (#))","med(Weather code (#))","min(Precip intensity (mm/h))","max(Precip intensity (mm/h))","std(Precip intensity (mm/h))","med(Precip intensity (mm/h))"
2013-09-16 00:00:00,2,2234,71,1.56,2,2,0,2,1284,3218,628,2122,71,71,0,71,0.25,3.50,0.92,1.35
2013-09-16 00:10:00,2,8415,59,0.58,2,2,0,2,1616,26817,7141,6788,10,71,24,71,0.00,2.30,0.75,0.12
2013-09-16 00:20:00,2,6540,64,0.35,2,2,0,2,1989,12778,3516,5084,0,71,21,71,0.00,1.35,0.42,0.15
2013-09-16 00:30:00,2,5093,71,0.51,2,2,0,2,2467,13595,3134,4186,71,71,0,71,0.00,1.65,0.55,0.28
2013-09-16 00:40:00,2,3594,71,0.93,2,2,0,2,1953,6536,1232,3466,71,71,0,71,0.05,2.35,0.68,0.72
2013-09-16 00:50:00,2,6079,71,0.36,2,2,0,2,3282,12509,2491,5659,71,71,0,71,0.00,0.90,0.33,0.17
2013-09-16 01:00:00,2,5067,71,0.89,2,2,0,2,1773,11396,3087,4037,71,71,0,71,0.00,2.80,0.91,0.43
2013-09-16 01:10:00,2,9754,71,0.58,2,2,0,2,1867,36160,9651,6398,71,71,0,71,0.00,1.90,0.71,0.15
2013-09-16 01:20:00,2,2910,71,1.36,2,2,0,2,1510,6235,1393,2410,71,71,0,71,0.05,3.05,0.93,1.18
2013-09-16 01:30:00,2,17886,57,0.33,2,2,0,2,1496,49502,15821,9656,0,71,28,71,0.00,2.45,0.72,0.05
2013-09-16 01:40:00,2,26301,43,0.02,2,2,0,2,14582,40614,8212,24220,0,71,35,71,0.00,0.10,0.03,0.00
2013-09-16 01:50:00,2,26634,12,0.02,2,2,0,2,7329,44196,12696,27908,0,41,19,0,0.00,0.10,0.03,0.00
2013-09-16 02:00:00,2,16030,36,0.47,2,2,0,2,2175,50000,17681,8667,0,71,32,40,0.00,2.00,0.65,0.08
2013-09-16 02:10:00,2,14880,71,0.20,2,2,0,2,3548,34344,11903,8690,71,71,0,71,0.00,0.90,0.31,0.00
2013-09-16 02:20:00,2,13660,74,0.19,2,2,0,2,3104,30074,8941,11054,71,77,3,74,0.00,1.15,0.34,0.05
2013-09-16 02:30:00,2,6738,71,1.45,2,2,0,2,1658,33314,9613,1892,71,71,0,71,0.00,3.05,0.99,1.53
2013-09-16 02:40:00,2,9126,71,0.42,2,2,0,2,2551,17799,5409,7630,71,71,0,71,0.00,2.20,0.64,0.12
2013-09-16 02:50:00,2,32805,54,0.01,2,2,0,2,10056,50000,13185,34716,0,71,28,71,0.00,0.05,0.02,0.00
2013-09-16 03:00:00,2,25604,32,0.38,2,2,0,2,2135,50000,20170,23480,0,71,34,20,0.00,2.45,0.74,0.00
2013-09-16 03:10:00,2,49204,0,0.00,2,2,0,2,46090,50000,1317,50000,0,0,0,0,0.00,0.00,0.00,0.00
2013-09-16 03:20:00,2,14981,26,0.07,2,2,0,2,5028,38722,9466,13880,0,71,28,20,0.00,0.60,0.18,0.00
2013-09-16 03:30:00,2,27879,28,0.03,2,2,0,2,8472,44873,14108,30658,0,71,24,41,0.00,0.25,0.07,0.00
2013-09-16 03:40:00,2,5600,71,0.57,2,2,0,2,1862,11632,3103,5375,71,71,0,71,0.05,2.00,0.61,0.25
2013-09-16 03:50:00,2,20554,71,0.03,2,2,0,2,9355,37870,9791,15246,71,71,0,71,0.00,0.15,0.05,0.00
2013-09-16 04:00:00,2,3280,71,1.04,2,2,0,2,1575,6233,1553,3144,71,71,0,71,0.10,2.65,0.97,0.55
2013-09-16 04:10:00,2,26911,51,0.04,2,2,0,2,3958,50000,18125,22882,0,71,28,71,0.00,0.40,0.12,0.00
2013-09-16 04:20:00,2,6852,49,0.38,2,2,0,2,4172,11125,2239,6649,0,71,22,41,0.00,1.45,0.43,0.20
2013-09-16 04:30:00,2,10396,68,0.06,2,2,0,2,3915,32077,7623,8332,0,77,23,77,0.00,0.25,0.07,0.05
2013-09-16 04:40:00,2,10499,57,0.40,2,2,0,2,3148,25723,8067,6575,0,71,28,71,0.00,1.25,0.39,0.35
2013-09-16 04:50:00,2,9966,64,0.94,2,2,0,2,1181,27244,8018,9172,0,71,21,71,0.00,3.15,1.24,0.05
2013-09-16 05:00:00,2,20191,59,0.26,2,2,0,2,3170,49363,16720,12970,0,77,29,71,0.00,1.45,0.46,0.00
2013-09-16 05:10:00,2,10247,71,0.20,2,2,0,2,4051,18896,4846,9675,71,71,0,71,0.00,0.55,0.20,0.08
2013-09-16 05:20:00,2,7615,71,0.35,2,2,0,2,2418,16072,4209,5902,71,71,0,71,0.00,1.50,0.43,0.20
2013-09-16 05:30:00,2,15449,71,0.05,2,2,0,2,3199,38536,12255,12298,71,71,0,71,0.00,0.15,0.05,0.05
2013-09-16 05:40:00,2,21418,59,0.13,2,2,0,2,2684,44381,14799,22248,0,77,29,71,0.00,0.60,0.23,0.03
2013-09-16 05:50:00,2,15909,75,0.04,2,2,0,2,4973,46858,13554,9412,71,77,3,77,0.00,0.15,0.05,0.03
2013-09-16 06:00:00,2,32049,30,0.03,2,2,0,2,3784,50000,19657,43330,0,77,36,0,0.00,0.30,0.09,0.00
2013-09-16 06:10:00,2,49969,0,0.00,2,2,0,2,49686,50000,94,50000,0,0,0,0,0.00,0.00,0.00,0.00
2013-09-16 06:20:00,2,12357,59,0.12,2,2,0,2,1793,50000,18848,3063,0,77,30,71,0.00,0.40,0.13,0.10
2013-09-16 06:30:00,2,4439,70,0.06,2,2,0,2,2152,14002,3367,3052,10,77,20,77,0.00,0.20,0.06,0.05
2013-09-16 06:40:00,2,48519,8,0.00,2,2,0,2,38018,50000,3601,50000,0,10,4,10,0.00,0.00,0.00,0.00
2013-09-16 06:50:00,2,29863,0,0.00,2,2,0,2,4806,50000,18618,37395,0,0,0,0,0.00,0.00,0.00,0.00
2013-09-16 07:00:00,2,31772,0,0.00,2,2,0,2,6406,50000,16676,32346,0,0,0,0,0.00,0.00,0.00,0.00
2013-09-16 07:10:00,2,40152,0,0.00,2,2,0,2,19581,50000,11053,46392,0,0,0,0,0.00,0.00,0.00,0.00
2013-09-16 07:20:00,2,18549,25,0.00,2,2,0,2,4636,41614,12004,14540,0,41,20,41,0.00,0.00,0.00,0.00
2013-09-16 07:30:00,2,23742,12,0.06,2,2,0,2,1985,50000,21378,13092,0,41,19,0,0.00,0.30,0.11,0.00
2013-09-16 07:40:00,2,13750,55,0.01,2,2,0,2,3651,36571,10310,9664,10,77,26,71,0.00,0.05,0.02,0.00
2013-09-16 07:50:00,2,10965,52,0.38,2,2,0,2,1520,28510,9322,7266,0,71,30,71,0.00,2.10,0.66,0.00
2013-09-16 08:00:00,2,15886,48,0.07,2,2,0,2,3241,42061,12446,9850,10,77,20,41,0.00,0.40,0.12,0.00
2013-09-16 08:10:00,2,42659,14,0.02,2,2,0,2,12763,50000,10820,46706,0,71,28,0,0.00,0.20,0.06,0.00
2013-09-16 08:20:00,2,28918,28,0.24,2,2,0,2,2540,50000,21730,36178,0,71,35,0,0.00,2.05,0.61,0.00
2013-09-16 08:30:00,2,7295,71,0.33,2,2,0,2,1639,14183,3792,7212,71,71,0,71,0.00,2.60,0.76,0.00
2013-09-16 08:40:00,2,40502,29,0.01,2,2,0,2,10414,50000,14449,50000,0,77,36,0,0.00,0.05,0.02,0.00
2013-09-16 08:50:00,2,49570,0,0.00,2,2,0,2,46718,50000,998,50000,0,0,0,0,0.00,0.00,0.00,0.00
2013-09-16 09:00:00,2,50000,0,0.00,2,2,0,2,50000,50000,0,50000,0,0,0,0,0.00,0.00,0.00,0.00
2013-09-16 09:10:00,2,50000,0,0.00,2,2,0,2,50000,50000,0,50000,0,0,0,0,0.00,0.00,0.00,0.00
2013-09-16 09:20:00,2,50000,0,0.00,2,2,0,2,50000,50000,0,50000,0,0,0,0,0.00,0.00,0.00,0.00
2013-09-16 09:30:00,2,49381,0,0.00,2,2,0,2,44882,50000,1533,50000,0,0,0,0,0.00,0.00,0.00,0.00
2013-09-16 09:40:00,2,41911,0,0.00,2,2,0,2,31102,50000,7500,42479,0,0,0,0,0.00,0.00,0.00,0.00
2013-09-16 09:50:00,2,44808,0,0.00,2,2,0,2,38007,50000,4328,44660,0,0,0,0,0.00,0.00,0.00,0.00
2013-09-16 10:00:00,2,50000,0,0.00,2,2,0,2,50000,50000,0,50000,0,0,0,0,0.00,0.00,0.00,0.00
2013-09-16 10:10:00,2,25771,0,0.00,2,2,0,2,9274,50000,14117,18896,0,0,0,0,0.00,0.00,0.00,0.00
2013-09-16 10:20:00,2,18719,0,0.00,2,2,0,2,8909,28514,6077,19261,0,0,0,0,0.00,0.00,0.00,0.00
2013-09-16 10:30:00,2,3481,52,0.24,2,2,0,2,2267,4388,733,3538,0,71,22,56,0.00,0.65,0.24,0.20
2013-09-16 10:40:00,2,14305,46,0.01,2,2,0,2,4952,38994,10264,10170,0,77,32,71,0.00,0.15,0.05,0.00
2013-09-16 10:50:00,2,8549,18,0.03,2,2,0,2,2871,17709,4609,8478,0,41,19,10,0.00,0.15,0.05,0.00
2013-09-16 11:00:00,2,30954,40,0.01,2,2,0,2,4134,50000,17309,31582,10,77,32,26,0.00,0.05,0.02,0.00
2013-09-16 11:10:00,2,24319,1,0.00,2,2,0,2,5900,50000,17796,15474,0,10,3,0,0.00,0.00,0.00,0.00
2013-09-16 11:20:00,2,3558,75,0.07,2,2,0,2,2222,5570,958,3453,71,77,3,77,0.05,0.15,0.03,0.05
2013-09-16 11:30:00,2,11897,54,0.04,2,2,0,2,3126,41867,11913,6316,10,77,29,71,0.00,0.15,0.05,0.03
2013-09-16 11:40:00,2,31468,26,0.00,2,2,0,2,6757,50000,17084,34466,0,77,25,26,0.00,0.00,0.00,0.00
2013-09-16 11:50:00,2,50000,0,0.00,2,2,0,2,50000,50000,0,50000,0,0,0,0,0.00,0.00,0.00,0.00
2013-09-16 12:00:00,2,50000,0,0.00,2,2,0,2,50000,50000,0,50000,0,0,0,0,0.00,0.00,0.00,0.00
2013-09-16 12:10:00,2,38753,0,0.00,2,2,0,2,7995,50000,14550,46986,0,0,0,0,0.00,0.00,0.00,0.00
2013-09-16 12:20:00,2,11905,4,0.00,2,2,0,2,4514,39092,9964,7806,0,10,5,0,0.00,0.00,0.00,0.00
2013-09-16 12:30:00,2,21385,6,0.06,2,2,0,2,4222,50000,16545,16308,0,41,12,0,0.00,0.55,0.17,0.00
2013-09-16 12:40:00,2,26978,4,0.01,2,2,0,2,2373,50000,18010,24634,0,40,12,0,0.00,0.05,0.02,0.00
2013-09-16 12:50:00,2,15821,58,0.02,2,2,0,2,2607,49674,16666,5506,10,77,26,71,0.00,0.10,0.03,0.00
2013-09-16 13:00:00,2,10838,77,0.01,2,2,0,2,3953,23195,6531,8738,77,77,0,77,0.00,0.05,0.02,0.00
2013-09-16 13:10:00,2,13991,59,0.00,2,2,0,2,3796,34178,10598,9307,41,77,18,59,0.00,0.00,0.00,0.00
2013-09-16 13:20:00,2,25780,7,0.00,2,2,0,2,6385,47028,14710,21470,0,10,5,10,0.00,0.00,0.00,0.00
2013-09-16 13:30:00,2,40460,0,0.00,2,2,0,2,24391,50000,9759,43662,0,0,0,0,0.00,0.00,0.00,0.00
2013-09-16 13:40:00,2,27196,36,0.02,2,2,0,2,4437,50000,16086,28212,0,77,36,36,0.00,0.10,0.04,0.00
2013-09-16 13:50:00,2,49915,0,0.00,2,2,0,2,49154,50000,254,50000,0,0,0,0,0.00,0.00,0.00,0.00
2013-09-16 14:00:00,2,50000,0,0.00,2,2,0,2,50000,50000,0,50000,0,0,0,0,0.00,0.00,0.00,0.00
2013-09-16 14:10:00,2,50000,0,0.00,2,2,0,2,50000,50000,0,50000,0,0,0,0,0.00,0.00,0.00,0.00
2013-09-16 14:20:00,2,45096,0,0.00,2,2,0,2,17774,50000,9312,47956,0,0,0,0,0.00,0.00,0.00,0.00
2013-09-16 14:30:00,2,33546,8,0.00,2,2,0,2,7348,50000,13646,36031,0,41,16,0,0.00,0.00,0.00,0.00
2013-09-16 14:40:00,2,48099,8,0.00,2,2,0,2,36046,50000,4291,50000,0,41,16,0,0.00,0.00,0.00,0.00
2013-09-16 14:50:00,2,27249,29,0.40,2,2,0,2,2293,50000,22091,28128,0,71,31,20,0.00,1.95,0.68,0.03
2013-09-16 15:00:00,2,45839,7,0.00,2,2,0,2,22523,50000,8603,50000,0,71,21,0,0.00,0.00,0.00,0.00
2013-09-16 15:10:00,2,50000,0,0.00,2,2,0,2,50000,50000,0,50000,0,0,0,0,0.00,0.00,0.00,0.00
2013-09-16 15:20:00,2,50000,0,0.00,2,2,0,2,50000,50000,0,50000,0,0,0,0,0.00,0.00,0.00,0.00
2013-09-16 15:30:00,2,48297,0,0.00,2,2,0,2,41216,50000,3408,50000,0,0,0,0,0.00,0.00,0.00,0.00
2013-09-16 15:40:00,2,25221,20,0.02,2,2,0,2,4154,50000,20115,16143,0,41,20,20,0.00,0.15,0.05,0.00
2013-09-16 15:50:00,2,20308,68,0.07,2,2,0,2,6153,50000,15381,12503,0,77,23,77,0.00,0.15,0.06,0.05
2013-09-16 16:00:00,2,27727,24,0.09,2,2,0,2,7331,50000,17372,21824,0,61,25,20,0.00,0.60,0.19,0.00
2013-09-16 16:10:00,2,50000,0,0.00,2,2,0,2,50000,50000,0,50000,0,0,0,0,0.00,0.00,0.00,0.00
2013-09-16 16:20:00,2,29240,14,0.02,2,2,0,2,6263,50000,17124,35786,0,71,28,0,0.00,0.20,0.06,0.00
2013-09-16 16:30:00,2,6823,71,0.77,2,2,0,2,2268,18184,4847,4995,71,71,0,71,0.05,1.85,0.68,0.65
2013-09-16 16:40:00,2,16062,44,0.51,2,2,0,2,2624,46528,14650,10180,0,71,31,56,0.00,1.70,0.54,0.38
2013-09-16 16:50:00,2,42289,8,0.02,2,2,0,2,11153,50000,13349,50000,0,41,16,0,0.00,0.20,0.06,0.00
2013-09-16 17:00:00,2,50000,0,0.00,2,2,0,2,50000,50000,0,50000,0,0,0,0,0.00,0.00,0.00,0.00
2013-09-16 17:10:00,2,22220,36,1.34,2,2,0,2,1235,50000,22813,7165,0,71,32,40,0.00,5.75,1.91,0.40
2013-09-16 17:20:00,2,5660,71,1.19,2,2,0,2,2764,16258,3997,4146,71,71,0,71,0.00,2.50,0.71,1.35
2013-09-16 17:30:00,2,14134,43,0.20,2,2,0,2,3561,31143,9029,13828,0,71,35,71,0.00,0.80,0.30,0.03
2013-09-16 17:40:00,2,45035,0,0.00,2,2,0,2,37654,50000,4587,44916,0,0,0,0,0.00,0.00,0.00,0.00
2013-09-16 17:50:00,2,50000,0,0.00,2,2,0,2,50000,50000,0,50000,0,0,0,0,0.00,0.00,0.00,0.00
2013-09-16 18:00:00,2,50000,0,0.00,2,2,0,2,50000,50000,0,50000,0,0,0,0,0.00,0.00,0.00,0.00
2013-09-16 18:10:00,2,19381,30,0.99,2,2,0,2,2019,50000,17446,16281,0,71,27,40,0.00,4.10,1.62,0.00
2013-09-16 18:20:00,2,48201,4,0.00,2,2,0,2,42845,50000,2661,49838,0,41,12,0,0.00,0.00,0.00,0.00
2013-09-16 18:30:00,2,49915,0,0.00,2,2,0,2,49479,50000,175,50000,0,0,0,0,0.00,0.00,0.00,0.00
2013-09-16 18:40:00,2,50000,0,0.00,2,2,0,2,50000,50000,0,50000,0,0,0,0,0.00,0.00,0.00,0.00
2013-09-16 18:50:00,2,50000,0,0.00,2,2,0,2,50000,50000,0,50000,0,0,0,0,0.00,0.00,0.00,0.00
2013-09-16 19:00:00,2,50000,0,0.00,2,2,0,2,50000,50000,0,50000,0,0,0,0,0.00,0.00,0.00,0.00
2013-09-16 19:10:00,2,50000,0,0.00,2,2,0,2,50000,50000,0,50000,0,0,0,0,0.00,0.00,0.00,0.00
2013-09-16 19:20:00,2,36896,4,0.30,2,2,0,2,1804,50000,17661,50000,0,40,12,0,0.00,3.05,0.91,0.00
2013-09-16 19:30:00,2,4002,68,2.27,2,2,0,2,1573,9410,2454,3045,40,71,9,71,0.00,5.05,2.03,1.12
2013-09-16 19:40:00,2,10429,71,1.58,2,2,0,2,1656,30569,10147,4814,71,71,0,71,0.00,6.60,2.06,0.55
2013-09-16 19:50:00,2,48740,29,0.00,2,2,0,2,43164,50000,2532,50000,0,77,36,0,0.00,0.00,0.00,0.00
2013-09-16 20:00:00,2,46868,0,0.00,2,2,0,2,35246,50000,5339,50000,0,0,0,0,0.00,0.00,0.00,0.00
2013-09-16 20:10:00,2,50000,0,0.00,2,2,0,2,50000,50000,0,50000,0,0,0,0,0.00,0.00,0.00,0.00
2013-09-16 20:20:00,2,50000,0,0.00,2,2,0,2,50000,50000,0,50000,0,0,0,0,0.00,0.00,0.00,0.00
2013-09-16 20:30:00,2,50000,0,0.00,2,2,0,2,50000,50000,0,50000,0,0,0,0,0.00,0.00,0.00,0.00
2013-09-16 20:40:00,2,50000,0,0.00,2,2,0,2,50000,50000,0,50000,0,0,0,0,0.00,0.00,0.00,0.00
2013-09-16 20:50:00,2,49811,0,0.00,2,2,0,2,48110,50000,567,50000,0,0,0,0,0.00,0.00,0.00,0.00
2013-09-16 21:00:00,2,50000,0,0.00,2,2,0,2,50000,50000,0,50000,0,0,0,0,0.00,0.00,0.00,0.00
2013-09-16 21:10:00,2,26680,23,0.39,2,2,0,2,2004,50000,23337,27757,0,71,25,20,0.00,1.20,0.49,0.00
2013-09-16 21:20:00,2,29534,73,0.02,2,2,0,2,4374,50000,16347,30440,71,77,3,71,0.00,0.10,0.04,0.00
2013-09-16 21:30:00,2,31079,12,0.05,2,2,0,2,5331,50000,18785,36988,0,41,19,0,0.00,0.30,0.09,0.00
2013-09-16 21:40:00,2,13934,43,0.97,2,2,0,2,1764,40656,14385,6362,0,71,35,71,0.00,3.80,1.16,0.78
2013-09-16 21:50:00,2,40538,12,0.08,2,2,0,2,16251,50000,12361,47885,0,41,19,0,0.00,0.45,0.15,0.00
2013-09-16 22:00:00,2,49452,4,0.00,2,2,0,2,45559,50000,1334,50000,0,41,12,0,0.00,0.00,0.00,0.00
2013-09-16 22:10:00,2,49647,0,0.00,2,2,0,2,48213,50000,637,50000,0,0,0,0,0.00,0.00,0.00,0.00
2013-09-16 22:20:00,2,50000,0,0.00,2,2,0,2,50000,50000,0,50000,0,0,0,0,0.00,0.00,0.00,0.00
2013-09-16 22:30:00,2,19904,44,1.88,2,2,0,2,1379,50000,20390,10677,0,71,31,56,0.00,6.10,2.50,0.20
2013-09-16 22:40:00,2,15218,64,0.22,2,2,0,2,3900,47547,14543,7658,0,71,21,71,0.00,0.65,0.23,0.15
2013-09-16 22:50:00,2,49227,0,0.00,2,2,0,2,46124,50000,1346,50000,0,0,0,0,0.00,0.00,0.00,0.00
2013-09-16 23:00:00,2,48941,0,0.00,2,2,0,2,46038,50000,1415,49952,0,0,0,0,0.00,0.00,0.00,0.00
2013-09-16 23:10:00,2,48242,0,0.00,2,2,0,2,36386,50000,4100,50000,0,0,0,0,0.00,0.00,0.00,0.00
2013-09-16 23:20:00,2,49884,0,0.00,2,2,0,2,49166,50000,248,50000,0,0,0,0,0.00,0.00,0.00,0.00
2013-09-16 23:30:00,2,48682,0,0.00,2,2,0,2,44958,50000,2034,50000,0,0,0,0,0.00,0.00,0.00,0.00
2013-09-16 23:40:00,2,49840,0,0.00,2,2,0,2,48399,50000,480,50000,0,0,0,0,0.00,0.00,0.00,0.00
2013-09-16 23:50:00,2,49402,0,0.00,2,2,0,2,44029,50000,1791,50000,0,0,0,0,0.00,0.00,0.00,0.00
